Regional Weather Roundup
Issued by NWS Goodland, KS

Home | Current Version | Previous Version | Text Only | Print | Product List | Glossary On
Versions: 1 2 3 4 5 6 7 8 9 10 11 12 13 14 15 16 17 18 19 20 21 22 23 24 25 26 27 28 29 30 31 32 33 34 35 36 37 38 39 40 41 42 43 44 45 46 47 48 49 50
000
ASUS43 KGLD 231608
RWRGLD

GOODLAND FORECAST AREA HOURLY WEATHER ROUNDUP
NATIONAL WEATHER SERVICE GOODLAND KS
1000 AM MDT SUN APR 23 2017

...OFFICIAL OBSERVATIONS...

CITY           SKY/WX    TMP DP  RH WIND       PRES   REMARKS
GOODLAND KS    CLOUDY    54  36  50 S25G33    30.06F
HILL CITY KS   SUNNY     60  31  33 SW18G26   30.15F
IMPERIAL NEB   SUNNY     56  34  43 S23G31    30.04F
MCCOOK NEB     SUNNY     60  33  36 S22G30    30.09F
AKRON CO       CLOUDY    56  33  42 S22G30    29.98F
BURLINGTON CO  NOT AVBL
LIMON CO       CLOUDY    52  36  54 S14G24    30.02F
$$

...UNOFFICIAL OBSERVATIONS...

CITY           SKY/WX    TMP DP  RH WIND       PRES   REMARKS
LENORA KS        N/A     58  32  37 MISG        N/A
NORTON KS      SUNNY     59  27  29 S17       30.13S
SHARON SPRINGS   N/A     55  39  55 S26G33      N/A
TRENTON NEB      N/A     58  32  37 SW12G18     N/A
KIT CARSON CO    N/A     52  39  62 MISG        N/A
YUMA CO        FAIR      54  36  50 S22G28    29.99F
$$



USA.gov is the U.S. government's official web portal to all federal, state and local government web resources and services.